Location: Pallagorio
(39.3000°N, 16.9000°E)
Time: 18:09:45
(UTC+00:00)

Cosmos 158 Rocket - Pass Details

Date: 24 January 2021
Orbit: 698 x 794 km, 74.0° (Epoch: 03 March)

Event Time Altitude Azimuth Distance (km) Brightness Sun altitude
Rises 17:04:07 0° 342° (NNW) 3,277 7.3 -11.8°
Reaches altitude 10° 17:06:30 10° 343° (NNW) 2,354 6.6 -12.3°
Maximum altitude 17:11:54 83° 72° (ENE) 804 4.0 -13.3°
Drops below altitude 10° 17:17:17 10° 160° (SSE) 2,353 6.5 -14.3°
Sets 17:19:40 0° 161° (SSE) 3,276 7.2 -14.7°
